Billings, MT

4:50 PM MDT on August 28, 2016 (GMT -0600)
Billings Logan International

Weather History for KBIL - September, 2013

Change the Weather History Date:

Monday, September 23, 2013

  Actual Average Record
Temperature  
Mean Temperature 61 °F 57 °F  
Max Temperature 71 °F 69 °F 91 °F (1966)
Min Temperature 51 °F 45 °F 23 °F (1984)
Degree Days  
Heating Degree Days 4 9  
Month to date heating degree days 28 120  
Since 1 July heating degree days 28 157  
Cooling Degree Days 0 1  
Month to date cooling degree days 103 47  
Year to date cooling degree days 840 629  
Growing Degree Days 11 (Base 50)    
Moisture  
Dew Point 36 °F    
Average Humidity 43    
Maximum Humidity 66    
Minimum Humidity 20    
Precipitation  
Precipitation T in 0.04 in 0.84 in (2007)
Month to date precipitation 2.99 0.97  
Year to date precipitation 11.17 11.02  
Snow  
Snow 0.00 in 0.10 in 6.20 in (1984)
Month to date snowfall T 0.6  
Since 1 July snowfall T 0.6  
Since 1 September snowfall T 0.6  
Snow Depth 0.00 in    
Sea Level Pressure  
Sea Level Pressure 29.76 in    
Wind  
Wind Speed 13 mph (WNW)    
Max Wind Speed 33 mph    
Max Gust Speed 41 mph    
Visibility 10 miles    
Events      
T = Trace of Precipitation, MM = Missing Value Source: NWS Daily Summary

Daily Weather History Graph

Daily Weather History Graph

Search for Another Location

Airport or City:

Trip Planner

Search our weather history database for the weather conditions in past years. The results will help you decide how hot, cold, wet, or windy it might be!

Date:

Astronomy

Sep. 23, 2013 Rise Set
Actual Time 7:02 AM MDT 7:09 PM MDT
Civil Twilight 6:33 AM MDT 7:38 PM MDT
Nautical Twilight 5:58 AM MDT 8:13 PM MDT
Astronomical Twilight 5:22 AM MDT 8:49 PM MDT
Moon 9:28 PM MDT (9/23) 11:39 AM MDT (9/23)
Length of Visible Light 13h 05m
Length of Day
12h 06m
Waning Gibbous, 81% of the Moon is Illuminated
Sep 23
Waning Gibbous
Sep 26
Last Quarter
Oct 4
New
Oct 11
First Quarter
Oct 18
Full

Hourly Weather History & Observations

Time (MDT) Temp. Dew Point Humidity Pressure Visibility Wind Dir Wind Speed Gust Speed Precip Events Conditions
12:53 AM 55.9 °F 44.1 °F 64% 29.61 in 10.0 mi NW 16.1 mph - N/A   Scattered Clouds
1:53 AM 55.9 °F 44.1 °F 64% 29.65 in 10.0 mi Variable 5.8 mph - N/A   Overcast
2:53 AM 55.9 °F 45.0 °F 67% 29.67 in 10.0 mi SW 6.9 mph - 0.00 in   Mostly Cloudy
3:53 AM 55.0 °F 44.1 °F 67% 29.67 in 10.0 mi WNW 11.5 mph - N/A   Scattered Clouds
4:53 AM 55.9 °F 42.1 °F 60% 29.68 in 10.0 mi West 11.5 mph - N/A   Overcast
5:53 AM 54.0 °F 41.0 °F 62% 29.70 in 10.0 mi West 11.5 mph - 0.00 in   Mostly Cloudy
6:53 AM 52.0 °F 39.9 °F 63% 29.72 in 10.0 mi West 13.8 mph - N/A   Partly Cloudy
7:53 AM 53.1 °F 39.9 °F 61% 29.73 in 10.0 mi SW 6.9 mph - N/A   Partly Cloudy
8:53 AM 55.0 °F 42.1 °F 62% 29.75 in 10.0 mi SW 9.2 mph - N/A   Partly Cloudy
9:53 AM 57.9 °F 42.1 °F 56% 29.77 in 10.0 mi SSW 9.2 mph - N/A   Partly Cloudy
10:53 AM 66.0 °F 36.0 °F 33% 29.76 in 10.0 mi West 26.5 mph 34.5 mph N/A   Partly Cloudy
11:53 AM 66.9 °F 35.1 °F 31% 29.77 in 10.0 mi West 27.6 mph 34.5 mph N/A   Partly Cloudy
12:53 PM 69.1 °F 34.0 °F 27% 29.76 in 10.0 mi WNW 21.9 mph 39.1 mph N/A   Scattered Clouds
1:53 PM 70.0 °F 30.9 °F 24% 29.76 in 10.0 mi West 23.0 mph 38.0 mph N/A   Partly Cloudy
2:53 PM 71.1 °F 28.0 °F 20% 29.74 in 10.0 mi WNW 27.6 mph 36.8 mph N/A   Partly Cloudy
3:53 PM 70.0 °F 30.0 °F 23% 29.75 in 10.0 mi NW 20.7 mph 31.1 mph N/A   Partly Cloudy
4:53 PM 70.0 °F 30.0 °F 23% 29.75 in 10.0 mi NW 19.6 mph 27.6 mph N/A   Partly Cloudy
5:53 PM 69.1 °F 30.0 °F 23% 29.77 in 10.0 mi NNW 12.7 mph - N/A   Partly Cloudy
6:53 PM 64.0 °F 33.1 °F 31% 29.81 in 10.0 mi North 9.2 mph - N/A   Partly Cloudy
7:53 PM 60.1 °F 32.0 °F 35% 29.84 in 10.0 mi North 5.8 mph - N/A   Partly Cloudy
8:53 PM 61.0 °F 32.0 °F 34% 29.86 in 10.0 mi NNE 4.6 mph - N/A   Clear
9:53 PM 57.0 °F 34.0 °F 42% 29.88 in 10.0 mi NNE 4.6 mph - N/A   Partly Cloudy
10:53 PM 55.9 °F 33.1 °F 42% 29.87 in 10.0 mi NNE 4.6 mph - N/A   Clear
11:53 PM 55.9 °F 33.1 °F 42% 29.88 in 10.0 mi South 4.6 mph - N/A   Clear